Time,TemperatureF,DewpointF,PressureIn,WindDirection,WindDirectionDegrees,WindSpeedMPH,WindSpeedGustMPH,Humidity,HourlyPrecipIn,Conditions,Clouds,dailyrainin,SoftwareType,DateUTC
2013-03-03 00:02:00,56.0,42.0,30.01,WNW,291,7.0,11.0,59,-99.99,,,-99.99,,2013-03-03 05:02:00,
2013-03-03 00:12:00,56.0,42.0,30.01,WNW,291,7.0,11.0,59,-99.99,,,-99.99,,2013-03-03 05:12:00,
2013-03-03 00:22:00,55.0,42.0,30.01,WNW,291,8.0,11.0,61,-99.99,,,-99.99,,2013-03-03 05:22:00,
2013-03-03 00:32:00,54.0,40.0,30.01,WNW,297,12.0,15.0,60,-99.99,,,-99.99,,2013-03-03 05:32:00,
2013-03-03 00:42:00,54.0,40.0,30.01,WNW,297,12.0,15.0,60,-99.99,,,-99.99,,2013-03-03 05:42:00,
2013-03-03 00:52:00,54.0,41.0,30.01,West,276,10.0,14.0,61,-99.99,,,-99.99,,2013-03-03 05:52:00,
2013-03-03 01:02:00,54.0,40.0,30.01,WNW,288,11.0,15.0,60,-99.99,,,-99.99,,2013-03-03 06:02:00,
2013-03-03 01:11:00,54.0,40.0,30.01,WNW,288,11.0,15.0,60,-99.99,,,-99.99,,2013-03-03 06:11:00,
2013-03-03 01:21:00,54.0,41.0,30.01,WNW,302,11.0,15.0,61,-99.99,,,-99.99,,2013-03-03 06:21:00,
2013-03-03 01:32:00,53.0,41.0,30.01,West,278,12.0,15.0,63,-99.99,,,-99.99,,2013-03-03 06:32:00,
2013-03-03 01:42:00,53.0,41.0,30.01,West,278,12.0,15.0,63,-99.99,,,-99.99,,2013-03-03 06:42:00,
2013-03-03 01:52:00,54.0,42.0,30.00,WNW,298,9.0,13.0,63,-99.99,,,-99.99,,2013-03-03 06:52:00,
2013-03-03 02:01:00,53.0,41.0,30.00,WNW,293,11.0,14.0,63,-99.99,,,-99.99,,2013-03-03 07:01:00,
2013-03-03 02:11:00,53.0,41.0,30.00,WNW,293,11.0,14.0,63,-99.99,,,-99.99,,2013-03-03 07:11:00,
2013-03-03 02:21:00,53.0,40.0,29.99,WNW,290,13.0,18.0,62,-99.99,,,-99.99,,2013-03-03 07:21:00,
2013-03-03 02:32:00,53.0,42.0,29.98,NW,307,10.0,14.0,66,-99.99,,,-99.99,,2013-03-03 07:32:00,
2013-03-03 02:42:00,53.0,42.0,29.98,NW,307,10.0,14.0,66,-99.99,,,-99.99,,2013-03-03 07:42:00,
2013-03-03 02:52:00,52.0,42.0,29.98,WNW,295,11.0,17.0,69,-99.99,,,-99.99,,2013-03-03 07:52:00,
2013-03-03 03:01:00,52.0,43.0,29.97,WNW,293,14.0,21.0,70,-99.99,,,-99.99,,2013-03-03 08:01:00,
2013-03-03 03:11:00,52.0,43.0,29.97,WNW,293,14.0,21.0,70,-99.99,,,-99.99,,2013-03-03 08:11:00,
2013-03-03 03:21:00,52.0,43.0,29.97,NW,315,12.0,17.0,72,-99.99,,,-99.99,,2013-03-03 08:21:00,
2013-03-03 03:31:00,52.0,43.0,29.97,NW,305,13.0,20.0,72,-99.99,,,-99.99,,2013-03-03 08:31:00,
2013-03-03 03:42:00,52.0,43.0,29.97,NW,305,13.0,20.0,72,-99.99,,,-99.99,,2013-03-03 08:42:00,
2013-03-03 03:54:00,52.0,43.0,29.98,WNW,285,15.0,20.0,71,-99.99,,,-99.99,,2013-03-03 08:54:00,
2013-03-03 04:01:00,52.0,44.0,29.98,WNW,283,15.0,21.0,73,-99.99,,,-99.99,,2013-03-03 09:01:00,
2013-03-03 04:12:00,52.0,44.0,29.98,WNW,283,15.0,21.0,73,-99.99,,,-99.99,,2013-03-03 09:12:00,
2013-03-03 04:21:00,52.0,44.0,29.97,WNW,285,13.0,17.0,73,-99.99,,,-99.99,,2013-03-03 09:21:00,
2013-03-03 04:32:00,52.0,44.0,29.96,WNW,284,12.0,17.0,74,-99.99,,,-99.99,,2013-03-03 09:32:00,
2013-03-03 04:42:00,52.0,44.0,29.96,WNW,284,12.0,17.0,74,-99.99,,,-99.99,,2013-03-03 09:42:00,
2013-03-03 04:52:00,52.0,44.0,29.96,West,280,12.0,16.0,74,-99.99,,,-99.99,,2013-03-03 09:52:00,
2013-03-03 05:01:00,52.0,44.0,29.96,West,280,12.0,17.0,73,-99.99,,,-99.99,,2013-03-03 10:01:00,
2013-03-03 05:11:00,52.0,44.0,29.96,West,280,12.0,17.0,73,-99.99,,,-99.99,,2013-03-03 10:11:00,
2013-03-03 05:21:00,52.0,44.0,29.97,West,264,13.0,18.0,74,-99.99,,,-99.99,,2013-03-03 10:21:00,
2013-03-03 05:32:00,51.0,44.0,29.97,West,270,12.0,17.0,76,-99.99,,,-99.99,,2013-03-03 10:32:00,
2013-03-03 05:42:00,51.0,44.0,29.97,West,270,12.0,17.0,76,-99.99,,,-99.99,,2013-03-03 10:42:00,
2013-03-03 05:52:00,51.0,44.0,29.98,West,273,12.0,16.0,77,-99.99,,,-99.99,,2013-03-03 10:52:00,
2013-03-03 06:01:00,51.0,43.0,29.98,WNW,284,14.0,18.0,75,-99.99,,,-99.99,,2013-03-03 11:01:00,
2013-03-03 06:11:00,51.0,43.0,29.98,WNW,284,14.0,18.0,75,-99.99,,,-99.99,,2013-03-03 11:11:00,
2013-03-03 06:22:00,52.0,44.0,29.98,West,280,14.0,18.0,73,-99.99,,,-99.99,,2013-03-03 11:22:00,
2013-03-03 06:32:00,52.0,43.0,29.98,WNW,284,13.0,19.0,72,-99.99,,,-99.99,,2013-03-03 11:32:00,
2013-03-03 06:42:00,52.0,43.0,29.98,WNW,284,13.0,19.0,72,-99.99,,,-99.99,,2013-03-03 11:42:00,
2013-03-03 06:53:00,52.0,44.0,29.99,West,264,12.0,18.0,73,-99.99,,,-99.99,,2013-03-03 11:53:00,
2013-03-03 07:01:00,51.0,43.0,30.00,West,273,12.0,18.0,73,-99.99,,,-99.99,,2013-03-03 12:01:00,
2013-03-03 07:11:00,51.0,43.0,30.00,West,273,12.0,18.0,73,-99.99,,,-99.99,,2013-03-03 12:11:00,
2013-03-03 07:21:00,51.0,43.0,29.99,West,264,11.0,17.0,74,-99.99,,,-99.99,,2013-03-03 12:21:00,
2013-03-03 07:32:00,51.0,43.0,29.99,WNW,300,12.0,16.0,73,-99.99,,,-99.99,,2013-03-03 12:32:00,
2013-03-03 07:43:00,51.0,43.0,29.99,WNW,300,12.0,16.0,73,-99.99,,,-99.99,,2013-03-03 12:43:00,
2013-03-03 07:53:00,51.0,43.0,29.99,WNW,288,9.0,13.0,75,-99.99,,,-99.99,,2013-03-03 12:53:00,
2013-03-03 08:01:00,52.0,44.0,30.00,WNW,288,8.0,10.0,74,-99.99,,,-99.99,,2013-03-03 13:01:00,
2013-03-03 08:11:00,52.0,44.0,30.00,WNW,288,8.0,10.0,74,-99.99,,,-99.99,,2013-03-03 13:11:00,
2013-03-03 08:22:00,52.0,43.0,30.01,West,262,9.0,13.0,71,-99.99,,,-99.99,,2013-03-03 13:22:00,
2013-03-03 08:32:00,53.0,43.0,30.01,West,277,11.0,14.0,69,-99.99,,,-99.99,,2013-03-03 13:32:00,
2013-03-03 08:42:00,53.0,43.0,30.01,West,277,11.0,14.0,69,-99.99,,,-99.99,,2013-03-03 13:42:00,
2013-03-03 08:52:00,53.0,42.0,30.01,NW,309,11.0,16.0,66,-99.99,,,-99.99,,2013-03-03 13:52:00,
2013-03-03 09:02:00,53.0,42.0,30.02,NW,305,12.0,16.0,66,-99.99,,,-99.99,,2013-03-03 14:02:00,
2013-03-03 09:11:00,53.0,42.0,30.02,NW,305,12.0,16.0,66,-99.99,,,-99.99,,2013-03-03 14:11:00,
2013-03-03 09:21:00,54.0,43.0,30.02,West,271,12.0,16.0,66,-99.99,,,-99.99,,2013-03-03 14:21:00,
2013-03-03 09:32:00,54.0,43.0,30.02,WNW,291,13.0,19.0,65,-99.99,,,-99.99,,2013-03-03 14:32:00,
2013-03-03 09:42:00,54.0,43.0,30.02,WNW,291,13.0,19.0,65,-99.99,,,-99.99,,2013-03-03 14:42:00,
2013-03-03 09:52:00,54.0,43.0,30.02,WNW,287,13.0,20.0,66,-99.99,,,-99.99,,2013-03-03 14:52:00,
2013-03-03 10:02:00,55.0,43.0,30.03,NW,308,10.0,17.0,65,-99.99,,,-99.99,,2013-03-03 15:02:00,
2013-03-03 10:11:00,55.0,43.0,30.03,NW,308,10.0,17.0,65,-99.99,,,-99.99,,2013-03-03 15:11:00,
2013-03-03 10:22:00,54.0,45.0,30.03,WNW,293,15.0,21.0,72,-99.99,,,-99.99,,2013-03-03 15:22:00,
2013-03-03 10:32:00,53.0,43.0,30.03,WNW,295,14.0,19.0,69,-99.99,,,-99.99,,2013-03-03 15:32:00,
2013-03-03 10:42:00,53.0,43.0,30.03,WNW,295,14.0,19.0,69,-99.99,,,-99.99,,2013-03-03 15:42:00,
2013-03-03 10:52:00,53.0,42.0,30.04,WNW,284,14.0,19.0,65,-99.99,,,-99.99,,2013-03-03 15:52:00,
2013-03-03 11:02:00,55.0,42.0,30.04,NW,305,8.0,16.0,61,-99.99,,,-99.99,,2013-03-03 16:02:00,
2013-03-03 11:12:00,55.0,42.0,30.04,NW,305,8.0,16.0,61,-99.99,,,-99.99,,2013-03-03 16:12:00,
2013-03-03 11:22:00,54.0,40.0,30.04,WNW,287,13.0,21.0,60,-99.99,,,-99.99,,2013-03-03 16:22:00,
2013-03-03 11:32:00,54.0,40.0,30.04,WNW,290,14.0,21.0,59,-99.99,,,-99.99,,2013-03-03 16:32:00,
2013-03-03 11:42:00,54.0,40.0,30.04,WNW,290,14.0,21.0,59,-99.99,,,-99.99,,2013-03-03 16:42:00,
2013-03-03 11:52:00,56.0,42.0,30.03,NW,304,9.0,15.0,59,-99.99,,,-99.99,,2013-03-03 16:52:00,
2013-03-03 12:01:00,56.0,41.0,30.02,WNW,283,11.0,17.0,56,-99.99,,,-99.99,,2013-03-03 17:01:00,
2013-03-03 12:11:00,56.0,40.0,30.02,West,277,11.0,19.0,54,-99.99,,,-99.99,,2013-03-03 17:11:00,
2013-03-03 12:22:00,56.0,40.0,30.02,West,277,11.0,19.0,54,-99.99,,,-99.99,,2013-03-03 17:22:00,
2013-03-03 12:32:00,57.0,40.0,30.02,West,267,14.0,20.0,53,-99.99,,,-99.99,,2013-03-03 17:32:00,
2013-03-03 12:42:00,57.0,40.0,30.02,West,267,14.0,20.0,53,-99.99,,,-99.99,,2013-03-03 17:42:00,
2013-03-03 12:52:00,58.0,41.0,30.01,NW,321,12.0,23.0,54,-99.99,,,-99.99,,2013-03-03 17:52:00,
2013-03-03 13:02:00,57.0,40.0,30.01,West,280,13.0,25.0,53,-99.99,,,-99.99,,2013-03-03 18:02:00,
2013-03-03 13:11:00,57.0,40.0,30.01,West,280,13.0,25.0,53,-99.99,,,-99.99,,2013-03-03 18:11:00,
2013-03-03 13:21:00,58.0,41.0,30.00,WNW,287,17.0,22.0,54,-99.99,,,-99.99,,2013-03-03 18:21:00,
2013-03-03 13:32:00,58.0,41.0,29.99,NW,316,13.0,18.0,54,-99.99,,,-99.99,,2013-03-03 18:32:00,
2013-03-03 13:42:00,58.0,41.0,29.99,NW,316,13.0,18.0,54,-99.99,,,-99.99,,2013-03-03 18:42:00,
2013-03-03 13:52:00,58.0,41.0,29.99,WNW,297,15.0,20.0,53,-99.99,,,-99.99,,2013-03-03 18:52:00,
2013-03-03 14:02:00,58.0,40.0,30.00,West,263,17.0,24.0,52,-99.99,,,-99.99,,2013-03-03 19:02:00,
2013-03-03 14:11:00,58.0,40.0,29.99,West,266,15.0,21.0,52,-99.99,,,-99.99,,2013-03-03 19:11:00,
2013-03-03 14:22:00,58.0,40.0,29.99,West,266,15.0,21.0,52,-99.99,,,-99.99,,2013-03-03 19:22:00,
2013-03-03 14:32:00,58.0,40.0,29.99,West,267,15.0,25.0,52,-99.99,,,-99.99,,2013-03-03 19:32:00,
2013-03-03 14:42:00,58.0,40.0,29.99,West,267,15.0,25.0,52,-99.99,,,-99.99,,2013-03-03 19:42:00,
2013-03-03 14:52:00,60.0,41.0,29.98,West,271,11.0,23.0,50,-99.99,,,-99.99,,2013-03-03 19:52:00,
2013-03-03 15:01:00,58.0,40.0,29.99,WSW,250,19.0,27.0,51,-99.99,,,-99.99,,2013-03-03 20:01:00,
2013-03-03 15:11:00,58.0,40.0,29.99,WSW,250,19.0,27.0,51,-99.99,,,-99.99,,2013-03-03 20:11:00,
2013-03-03 15:22:00,59.0,40.0,29.98,SW,221,16.0,25.0,50,-99.99,,,-99.99,,2013-03-03 20:22:00,
2013-03-03 15:32:00,59.0,40.0,29.99,WSW,239,15.0,25.0,50,-99.99,,,-99.99,,2013-03-03 20:32:00,
2013-03-03 15:42:00,59.0,40.0,29.99,WSW,239,15.0,25.0,50,-99.99,,,-99.99,,2013-03-03 20:42:00,
2013-03-03 15:53:00,59.0,40.0,29.99,West,262,13.0,21.0,50,-99.99,,,-99.99,,2013-03-03 20:53:00,
2013-03-03 16:02:00,59.0,41.0,29.99,SW,218,16.0,26.0,51,-99.99,,,-99.99,,2013-03-03 21:02:00,
2013-03-03 16:11:00,59.0,41.0,29.99,SW,218,16.0,26.0,51,-99.99,,,-99.99,,2013-03-03 21:11:00,
2013-03-03 16:22:00,59.0,41.0,29.99,WSW,253,14.0,22.0,51,-99.99,,,-99.99,,2013-03-03 21:22:00,
2013-03-03 16:32:00,59.0,40.0,30.00,West,269,16.0,26.0,50,-99.99,,,-99.99,,2013-03-03 21:32:00,
2013-03-03 16:42:00,59.0,40.0,30.00,West,269,16.0,26.0,50,-99.99,,,-99.99,,2013-03-03 21:42:00,
2013-03-03 16:52:00,59.0,41.0,30.00,SW,233,17.0,29.0,51,-99.99,,,-99.99,,2013-03-03 21:52:00,
2013-03-03 17:02:00,59.0,41.0,30.00,WSW,255,16.0,21.0,52,-99.99,,,-99.99,,2013-03-03 22:02:00,
2013-03-03 17:11:00,59.0,41.0,30.00,WSW,255,16.0,21.0,52,-99.99,,,-99.99,,2013-03-03 22:11:00,
2013-03-03 17:22:00,59.0,41.0,30.01,West,269,16.0,27.0,51,-99.99,,,-99.99,,2013-03-03 22:22:00,
2013-03-03 17:32:00,59.0,40.0,30.01,SW,218,21.0,29.0,50,-99.99,,,-99.99,,2013-03-03 22:32:00,
2013-03-03 17:42:00,59.0,40.0,30.01,SW,218,21.0,29.0,50,-99.99,,,-99.99,,2013-03-03 22:42:00,
2013-03-03 17:52:00,59.0,41.0,30.02,WSW,253,21.0,32.0,51,-99.99,,,-99.99,,2013-03-03 22:52:00,
2013-03-03 18:01:00,58.0,40.0,30.02,WSW,250,17.0,28.0,51,-99.99,,,-99.99,,2013-03-03 23:01:00,
2013-03-03 18:11:00,58.0,40.0,30.02,WSW,250,17.0,28.0,51,-99.99,,,-99.99,,2013-03-03 23:11:00,
2013-03-03 18:21:00,58.0,41.0,30.03,WSW,248,18.0,27.0,53,-99.99,,,-99.99,,2013-03-03 23:21:00,
2013-03-03 18:32:00,58.0,38.0,30.03,WSW,239,20.0,26.0,48,-99.99,,,-99.99,,2013-03-03 23:32:00,
2013-03-03 18:42:00,58.0,38.0,30.03,WSW,239,20.0,26.0,48,-99.99,,,-99.99,,2013-03-03 23:42:00,
2013-03-03 18:52:00,58.0,38.0,30.03,West,259,21.0,30.0,48,-99.99,,,-99.99,,2013-03-03 23:52:00,
2013-03-03 19:02:00,57.0,37.0,30.04,WSW,253,24.0,40.0,47,-99.99,,,-99.99,,2013-03-04 00:02:00,
2013-03-03 19:11:00,57.0,37.0,30.04,WSW,253,24.0,40.0,47,-99.99,,,-99.99,,2013-03-04 00:11:00,
2013-03-03 19:21:00,57.0,41.0,30.05,WSW,248,21.0,34.0,54,-99.99,,,-99.99,,2013-03-04 00:21:00,
2013-03-03 19:32:00,57.0,42.0,30.06,WSW,256,17.0,27.0,58,-99.99,,,-99.99,,2013-03-04 00:32:00,
2013-03-03 19:42:00,57.0,42.0,30.06,WSW,256,17.0,27.0,58,-99.99,,,-99.99,,2013-03-04 00:42:00,
2013-03-03 19:52:00,56.0,43.0,30.06,SW,221,17.0,26.0,61,-99.99,,,-99.99,,2013-03-04 00:52:00,
2013-03-03 20:01:00,56.0,43.0,30.07,West,270,17.0,24.0,62,-99.99,,,-99.99,,2013-03-04 01:01:00,
2013-03-03 20:12:00,56.0,43.0,30.07,West,270,17.0,24.0,62,-99.99,,,-99.99,,2013-03-04 01:12:00,
2013-03-03 20:21:00,56.0,44.0,30.08,WSW,253,14.0,22.0,64,-99.99,,,-99.99,,2013-03-04 01:21:00,
2013-03-03 20:32:00,55.0,43.0,30.08,SW,236,15.0,23.0,65,-99.99,,,-99.99,,2013-03-04 01:32:00,
2013-03-03 20:42:00,55.0,43.0,30.08,SW,236,15.0,23.0,65,-99.99,,,-99.99,,2013-03-04 01:42:00,
2013-03-03 20:51:00,55.0,44.0,30.09,WSW,243,16.0,24.0,66,-99.99,,,-99.99,,2013-03-04 01:51:00,
2013-03-03 21:01:00,55.0,44.0,30.10,West,264,13.0,21.0,66,-99.99,,,-99.99,,2013-03-04 02:01:00,
2013-03-03 21:11:00,55.0,44.0,30.10,West,264,13.0,21.0,66,-99.99,,,-99.99,,2013-03-04 02:11:00,
2013-03-03 21:22:00,54.0,43.0,30.10,WSW,257,15.0,22.0,67,-99.99,,,-99.99,,2013-03-04 02:22:00,
2013-03-03 21:32:00,54.0,44.0,30.11,WSW,248,14.0,22.0,68,-99.99,,,-99.99,,2013-03-04 02:32:00,
2013-03-03 21:42:00,54.0,44.0,30.11,WSW,248,14.0,22.0,68,-99.99,,,-99.99,,2013-03-04 02:42:00,
2013-03-03 21:52:00,54.0,44.0,30.11,West,266,15.0,20.0,70,-99.99,,,-99.99,,2013-03-04 02:52:00,
2013-03-03 22:02:00,53.0,44.0,30.12,West,262,17.0,24.0,71,-99.99,,,-99.99,,2013-03-04 03:02:00,
2013-03-03 22:11:00,53.0,44.0,30.12,West,262,17.0,24.0,71,-99.99,,,-99.99,,2013-03-04 03:11:00,
2013-03-03 22:22:00,53.0,44.0,30.12,WSW,257,17.0,21.0,71,-99.99,,,-99.99,,2013-03-04 03:22:00,
2013-03-03 22:32:00,53.0,44.0,30.12,West,270,16.0,23.0,71,-99.99,,,-99.99,,2013-03-04 03:32:00,
2013-03-03 22:42:00,53.0,44.0,30.12,West,267,18.0,25.0,71,-99.99,,,-99.99,,2013-03-04 03:42:00,
2013-03-03 22:52:00,53.0,44.0,30.12,West,267,18.0,25.0,71,-99.99,,,-99.99,,2013-03-04 03:52:00,
2013-03-03 23:01:00,52.0,42.0,30.12,WNW,284,22.0,33.0,69,-99.99,,,-99.99,,2013-03-04 04:01:00,
2013-03-03 23:11:00,52.0,42.0,30.12,WNW,284,22.0,33.0,69,-99.99,,,-99.99,,2013-03-04 04:11:00,
2013-03-03 23:22:00,52.0,43.0,30.11,WNW,284,22.0,30.0,71,-99.99,,,-99.99,,2013-03-04 04:22:00,
2013-03-03 23:32:00,51.0,43.0,30.12,WNW,290,21.0,27.0,73,-99.99,,,-99.99,,2013-03-04 04:32:00,
2013-03-03 23:42:00,51.0,43.0,30.12,WNW,290,21.0,27.0,73,-99.99,,,-99.99,,2013-03-04 04:42:00,
2013-03-03 23:52:00,51.0,42.0,30.12,West,277,16.0,24.0,72,-99.99,,,-99.99,,2013-03-04 04:52:00,